DELTA 1 DEB, 42084

Orbit data source: Space-Track

DELTA 1 DEB, 42084 is space debris in SSO originally from a launch on Sun, 15 Dec 1968 UTC launched from the Air Force Western Test Range (AFWTR). Debris objects in space refer to the collection of defunct objects orbiting the Earth. Examples of debris include non-operational satellites, rocket bodies, and fragments generated from explosions, collisions, or faulty payload assembly.

Loading next visibility...
Identifier
42084, 1968-114L
Orbit
SSO
Country
Flag of USUS
Related business
Manufacturer
Aerojet
Mission
Spacecraft
Bus & Motor
Unknown
Mass
Unknown
Launch date (UTC)
1968-12-15 (57 years ago)
Launch vehicle
Unknown
Launch site
Air Force Western Test Range (AFWTR)
Object type
Payload
Rocket body
Debris
Shape & HBR
Unknown shape, 0.1 m
Radar Cross Section
Small (<0.1 m²)

Expand to show TLE details & history
Last TLE update: 3 days ago

TLE from 3 days ago
0 DELTA 1 DEB
1 42084U 68114L   25299.37087974  .00000722  00000-0  38789-2 0  9998
2 42084 101.7268 345.7682 0340428 283.9313  72.4124 12.53825030270468
Epoch: 2025-10-26T08:54Z
TLE epoch observation values (Epoch: 2025-10-26T08:54:04.009Z)
Latitude
Longitude
177.26345°
Altitude
1,378.965 km
Speed
7.203 km/s
True Right ascension
23h 03m 04s
True Declination
0° 00' 00"
Sunlit
Object was in full shadow at epoch
Visualization orbit readout
Latitude
Unknown
Longitude
Unknown
Altitude
Unknown
Speed
Unknown
Apparent Right ascension
Unknown
Apparent Declination
Unknown
Sunlit
N/A
Visualization observer readout
Local Sidereal Time
10:04:49
Azimuth
Unknown
Elevation
Unknown
Doppler factor
Unknown
Orbital elements
Apogee altitude
1,712.431 km
Perigee altitude
1,179.715 km
Semi-major axis
7,824.21 km
Eccentricity
0.03404
Inclination
101.7268°
RAAN
345.7682°
Arg. of periapsis
283.9313°
True anomaly
76.17677°
Mean anomaly
72.4124°
Eccentric anomaly
74.29005°
Mean motion
3.13605 °/min
Orbital period
114.79 mins
BSTAR
0.0038789
Loading maneuver chart data...
Computing Atmospheric mass density...
Loading historical data...
Loading historical data...
Loading historical data...
Loading historical data...
Loading historical data...
Loading historical data...
Loading historical data...

Documentation

Showing up to 5 results
|